EW7285 Weather Reports


Display with metric or nautical units.
time (UTC)temp
F
wind
direction
speed
MPH
gust
MPH
rain 1hr
in
rain 24hr
in
rain mn
in
humidity
%
barometer
mb
20260505183108 45 83 3.0 5.0 0.00 0.00 0.00 68 1007.3
20260505181610 46 71 3.0 6.0 0.00 0.00 0.00 65 1007.1
20260505180056 46 50 4.0 6.0 0.00 0.00 0.00 59 1007.0
20260505174556 47 350 4.0 8.0 0.00 0.00 0.00 46 1006.9
20260505173053 47 32 6.0 12.0 0.00 0.00 0.00 44 1006.7
20260505171552 48 314 9.0 14.0 0.00 0.00 0.00 40 1006.6
20260505170050 48 243 8.0 13.0 0.00 0.00 0.00 40 1006.4
20260505164558 49 275 9.0 15.0 0.00 0.00 0.00 38 1006.3
20260505163048 49 307 6.0 11.0 0.00 0.00 0.00 41 1006.3
20260505161556 49 269 7.0 14.0 0.00 0.00 0.00 38 1006.3
20260505153050 49 259 7.0 14.0 0.00 0.00 0.00 38 1006.1
20260505151542 49 269 9.0 14.0 0.00 0.00 0.00 39 1006.1
20260505124535 50 268 12.0 21.0 0.00 0.00 0.00 37 1005.5
20260505123026 49 261 10.0 16.0 0.00 0.00 0.00 36 1005.5
20260505121523 50 263 11.0 18.0 0.00 0.00 0.00 34 1005.6
20260505120023 48 267 11.0 14.0 0.00 0.00 0.00 40 1005.4
20260505114517 49 265 14.0 20.0 0.00 0.00 0.00 39 1005.4
20260505113015 49 292 10.0 18.0 0.00 0.00 0.00 42 1005.3
20260505111511 49 306 11.0 20.0 0.00 0.00 0.00 42 1005.4
20260505101556 48 266 10.0 19.0 0.00 0.00 0.00 43 1005.1
20260505100055 49 237 10.0 18.0 0.00 0.00 0.00 47 1005.2
20260505094553 47 260 12.0 18.0 0.00 0.00 0.00 45 1005.1
20260505093057 48 271 10.0 18.0 0.00 0.00 0.00 50 1005.0
20260505091550 47 236 9.0 16.0 0.00 0.00 0.00 53 1004.9
20260505090049 47 242 12.0 20.0 0.00 0.00 0.00 56 1004.9
20260505084553 46 279 15.0 20.0 0.00 0.00 0.00 56 1004.9
20260505083051 46 254 10.0 17.0 0.00 0.00 0.00 61 1004.7
20260505081550 46 273 10.0 17.0 0.00 0.00 0.00 65 1004.6
20260505080044 45 255 10.0 18.0 0.00 0.00 0.00 66 1004.5
20260505074542 45 261 6.0 16.0 0.00 0.01 0.00 69 1004.4
20260505073041 44 248 6.0 17.0 0.00 0.01 0.00 71 1004.4
20260505071541 44 269 9.0 16.0 0.00 0.01 0.00 72 1004.2
20260505070044 44 265 9.0 15.0 0.00 0.01 0.00 75 1004.0
20260505064538 44 261 8.0 14.0 0.00 0.02 0.00 74 1003.9
20260505063038 44 254 9.0 15.0 0.00 0.02 0.00 73 1003.8
20260505061535 43 268 8.0 14.0 0.00 0.02 0.00 74 1003.7
20260505060037 44 268 11.0 16.0 0.00 0.02 0.00 74 1003.6
20260505054532 43 292 11.0 16.0 0.00 0.07 0.00 75 1003.5
20260505053049 43 258 7.0 12.0 0.00 0.07 0.00 76 1003.5
20260505051530 42 306 8.0 12.0 0.00 0.07 0.00 80 1003.4
20260505041521 42 320 7.0 12.0 0.00 0.13 0.00 83 1002.8
20260505040021 42 286 7.0 11.0 0.00 0.13 0.00 81 1002.5
20260505034521 43 279 10.0 16.0 0.00 0.13 0.00 80 1002.3
20260505033013 43 277 5.0 11.0 0.00 0.13 0.00 79 1002.2
20260505031512 44 283 7.0 13.0 0.00 0.13 0.00 77 1002.0
20260505030007 44 258 9.0 13.0 0.00 0.13 0.00 75 1001.8
20260505024503 45 281 7.0 21.0 0.00 0.13 0.00 72 1001.6
20260505023103 46 264 11.0 17.0 0.00 0.13 0.00 73 1001.5
20260505021558 46 252 6.0 11.0 0.00 0.13 0.00 71 1001.2
20260505020055 46 227 6.0 11.0 0.00 0.13 0.00 69 1001.1
20260505014551 46 225 6.0 15.0 0.00 0.13 0.00 67 1000.9
20260505013051 47 218 6.0 10.0 0.00 0.13 0.00 65 1000.7
20260505011604 47 227 8.0 14.0 0.00 0.13 0.00 63 1000.8
20260505010046 47 215 9.0 17.0 0.00 0.13 0.00 62 1000.6
20260505004540 48 199 7.0 12.0 0.00 0.13 0.00 59 1000.6
20260505003037 48 183 6.0 10.0 0.00 0.13 0.00 59 1000.5
20260505001535 48 209 10.0 15.0 0.00 0.13 0.00 57 1000.4
20260505000038 49 215 8.0 16.0 0.00 0.13 0.00 56 1000.3
20260504234531 49 189 8.0 14.0 0.00 0.13 0.00 55 1000.5
20260504233027 49 219 7.0 12.0 0.00 0.13 0.00 54 1000.5
20260504231524 49 200 7.0 12.0 0.00 0.13 0.00 53 1000.6
20260504230021 50 197 7.0 15.0 0.00 0.13 0.00 53 1000.6
20260504224518 50 197 7.0 13.0 0.00 0.13 0.00 53 1000.8
20260504223020 50 213 7.0 11.0 0.00 0.13 0.00 53 1000.9
20260504221513 49 146 7.0 12.0 0.00 0.13 0.00 55 1001.0
20260504220009 50 221 5.0 11.0 0.00 0.13 0.00 53 1001.1
20260504214510 51 188 5.0 13.0 0.00 0.13 0.13 53 1001.1
20260504213008 51 196 6.0 12.0 0.00 0.13 0.13 53 1001.1
20260504211507 51 215 7.0 12.0 0.00 0.13 0.13 53 1001.2
20260504210010 51 190 6.0 12.0 0.00 0.13 0.13 54 1001.3
20260504204508 51 215 5.0 11.0 0.00 0.13 0.13 55 1001.3
20260504203004 51 204 6.0 12.0 0.00 0.13 0.13 57 1001.3
20260504201504 51 175 5.0 10.0 0.00 0.13 0.13 59 1001.3
20260504200002 51 188 4.0 7.0 0.00 0.13 0.13 63 1001.1
20260504194501 50 167 5.0 7.0 0.00 0.13 0.13 67 1001.2
20260504193002 51 169 4.0 8.0 0.00 0.13 0.13 68 1001.1
20260504191614 51 155 4.0 8.0 0.00 0.13 0.13 69 1001.1
20260504190104 51 162 4.0 6.0 0.00 0.13 0.13 70 1001.1
20260504184559 51 168 4.0 7.0 0.00 0.13 0.13 70 1001.1